Regional Weather Roundup
Issued by NWS

Home | Current Version | Previous Version | Text Only | Print | Product List | Glossary On
Versions: 1 2 3 4 5 6 7 8 9 10 11 12 13 14 15 16 17 18 19 20 21 22 23 24 25 26 27 28 29 30 31 32 33 34 35 36 37 38 39 40 41 42 43 44 45 46 47 48 49 50
000
ASUS43 KDMX 170106
RWRIA

WEATHER ROUNDUP FOR IOWA
NATIONAL WEATHER SERVICE DES MOINES IA
800 PM CDT MON OCT 16 2017

NOTE: "FAIR" INDICATES FEW OR NO CLOUDS BELOW 12,000 FEET WITH NO
SIGNIFICANT WEATHER AND/OR OBSTRUCTIONS TO VISIBILITY.

* - THESE STATIONS ARE NOT NWS STATIONS...THUS NOT UNDER NWS
QUALITY CONTROL.  THEY ALSO DO NOT REPORT WEATHER SUCH
AS PRECIPITATION OR FOG.

IAZ001>003-012>014-020>022-031>034-043>046-170200-
   NORTHWEST IOWA

CITY           SKY/WX    TMP DP  RH WIND       PRES   REMARKS
CARROLL *      CLEAR     57  43  58 S8        30.10S
CHEROKEE *     CLOUDY    58  40  51 S8        30.06R
DENISON *      CLEAR     61  39  44 S10G17    30.10F
LE MARS *      CLOUDY    57  41  54 S8        30.04S
ORANGE CITY *  CLEAR     59  43  55 S7        30.04S
SHELDON *      CLEAR     57  39  51 S7        30.02S
SIOUX CITY     CLEAR     62  39  42 S7        30.05S
SPENCER        CLEAR     58  38  47 S9        30.05S
STORM LAKE *   CLEAR     57  37  47 S9        30.08R
$$

IAZ055>058-069>071-079>083-090>094-170200-
   SOUTHWEST IOWA

CITY           SKY/WX    TMP DP  RH WIND       PRES   REMARKS
ATLANTIC *     CLEAR     55  41  58 S8        30.13S
AUDUBON *      CLEAR     59  39  47 S7        30.13S
CLARINDA *       N/A     54  41  62 S6        30.19R
COUNCIL BLFS * CLEAR     64  39  39 S13       30.11F
CRESTON *      CLEAR     55  41  58 S12       30.17F
HARLAN  *      CLEAR     57  39  51 S8        30.15S
LAMONI         CLEAR     58  40  51 S10       30.19S
RED OAK *      CLEAR     55  41  58 S6        30.15S
SHENANDOAH *   CLEAR     61  39  44 S10       30.16S
$$

IAZ047>049-059>061-072>074-084-170200-
   CENTRAL IOWA

CITY           SKY/WX    TMP DP  RH WIND       PRES   REMARKS
AMES           CLEAR     57  41  55 S10       30.12F
ANKENY *       CLEAR     57  39  51 S7        30.15F
BOONE *        CLEAR     57  39  51 S8        30.12R
CHARITON *     CLEAR     57  37  47 S9        30.18S
DES MOINES     PTCLDY    58  39  49 S9        30.15S
GRINNELL*      CLEAR     54  37  53 S7        30.18S
KNOXVILLE *    CLEAR     55  37  50 S7        30.16S
MARSHALLTOWN   CLEAR     55  39  54 S8        30.13F
NEWTON *       CLEAR     52  37  58 S9        30.16S
PELLA *        CLEAR     55  38  52 S7        30.19R
PERRY *          N/A     55  38  52 S7        30.13S
$$

IAZ004>006-015-016-023>025-035-036-170200-
   NORTH CENTRAL IOWA

CITY           SKY/WX    TMP DP  RH WIND       PRES   REMARKS
ALGONA *       CLOUDY    57  39  51 S10       30.07S
CLARION *      CLEAR     55  39  54 S10       30.10S
ESTHERVILLE    CLEAR     54  39  57 S8        30.04S
FORT DODGE *   CLEAR     58  39  49 S9        30.10S
MASON CITY     CLEAR     50  37  61 S9        30.10S
FOREST CITY *    N/A     54  37  54 S9        30.07S
WEBSTER CITY * CLEAR     54  37  54 S8        30.09S
IOWA FALLS *     N/A     53  40  61 S7        30.14R
$$

IAZ007>011-017>019-026>030-037>042-050>054-066-170200-
   NORTHEAST IOWA

CITY           SKY/WX    TMP DP  RH WIND       PRES   REMARKS
CEDAR RAPIDS   CLEAR     53  37  54 S5        30.17S
CHARLES CITY * CLEAR     55  36  47 S8        30.11S
CLINTON *      CLEAR     51  39  63 S7        30.20S
DECORAH *      CLEAR     55  36  47 S8        30.10F
DUBUQUE        CLEAR     49  37  63 S6        30.17F
MONTICELLO *   CLEAR     52  37  58 S7        30.17S
OELWEIN *      CLEAR     52  37  58 S10       30.14F
WATERLOO       CLEAR     54  37  52 S9        30.12F
$$

IAZ064-065-067-068-078-170200-
   EAST CENTRAL IOWA

CITY           SKY/WX    TMP DP  RH WIND       PRES   REMARKS
DAVENPORT      CLEAR     50  38  63 S7        30.22F
IOWA CITY      CLEAR     54  39  57 S6        30.20S
MUSCATINE *    CLEAR     50  41  71 S8        30.21S
QUAD CITIES    CLEAR     52  38  58 S7        30.20F
$$

IAZ062-063-075>077-085>089-095>099-170200-
   SOUTHEAST IOWA

CITY           SKY/WX    TMP DP  RH WIND       PRES   REMARKS
BURLINGTON     CLEAR     50  41  71 S5        30.23R
FAIRFIELD *    CLEAR     55  37  50 S8        30.20S
FORT MADISON * CLEAR     54  43  66 S3        30.24S
KEOKUK *       CLEAR     55  37  50 S6        30.23S
OSKALOOSA *      N/A     48  39  71 S8        30.19S
OTTUMWA        CLEAR     54  39  57 S9        30.19S
WASHINGTON *   CLEAR     54  39  58 S8        30.21S
$$

ABBREVIATIONS USED IN REMARKS
   TC - TEMPERATURES IN CELSIUS
  WCI - WIND CHILL INDEX
   HX - HEAT INDEX
  VSB - VISIBILITY
$$





USA.gov is the U.S. government's official web portal to all federal, state and local government web resources and services.